Location: Eisingen in Unterfranken
(49.7591°N, 9.8347°E)
Time: 13:04:01
(UTC+01:00)

N. Korean satellite - Pass Details

Date: 07 December 2022
Orbit: 407 x 441 km, 97.3° (Epoch: 05 February)

Event Time Altitude Azimuth Distance (km) Brightness Sun altitude
Rises 17:39:31 0° 202° (SSW) 2,467 10.8 -12.1°
Reaches altitude 10° 17:42:00 10° 222° (SW) 1,609 10.2 -12.5°
Maximum altitude 17:44:29 18° 268° (W) 1,195 9.6 -12.8°
Drops below altitude 10° 17:47:00 10° 314° (NW) 1,635 9.6 -13.2°
Sets 17:49:33 0° 333° (NNW) 2,523 10.3 -13.6°
